Regional Weather Roundup
Issued by NWS

Home | Current Version | Previous Version | Graphics & Text | Print | Product List | Glossary On
Versions: 1 2 3 4 5 6 7 8 9 10 11 12 13 14 15 16 17 18 19 20 21 22 23 24 25 26 27 28 29 30 31 32 33 34 35 36 37 38 39 40 41 42 43 44 45 46 47 48 49 50
000
ASUS45 KABQ 291810
RWRNM
NEW MEXICO REGIONAL WEATHER ROUNDUP
NATIONAL WEATHER SERVICE ALBUQUERQUE NM
1200 PM MDT FRI APR 29 2016

NOTE: "FAIR" MEANS FEW OR NO CLOUDS BELOW 12,000 FEET AGL WITH NO
       SIGNIFICANT WEATHER OR OBSTRUCTIONS TO VISION.

      THIS PRODUCT IS RELEASED AS TWO VERSIONS.  ONE VERSION NEAR
      THE TOP OF THE HOUR CONTAINING PRELIMINARY DATA FROM ALBUQUERQUE
      AND OTHER STATIONS.  A FINAL VERSION WITH ADDITIONAL DATA IS
      ISSUED ABOUT 10 MINUTES AFTER THE HOUR.

NMZ501-503-504-510>518-291900-
NORTHWEST PLATEAU/NORTHCENTRAL MOUNTAINS

CITY           SKY/WX    TMP DP  RH WIND       PRES   REMARKS
FARMINGTON     FAIR      53  29  39 W14G22    29.83F
6HR MIN TEMP:  36; 6HR MAX TEMP:  53;

LOS ALAMOS     FAIR      42  35  75 E3        29.86S
SANTA FE       HAIL      44  29  55 S15G21    29.85S
6HR MIN TEMP:  35; 6HR MAX TEMP:  53; 6HR PCP: TRACE;

TAOS           PTSUNNY   39  28  65 W5        29.85S
ANGEL FIRE     FLURRIES  33  29  87 SW8       29.86S WCI  26

$$
NMZ402-403-502-505>509-291900-
WESTCENTRAL MOUNTAINS/SOUTHWEST MOUNTAINS

CITY           SKY/WX    TMP DP  RH WIND       PRES   REMARKS
GALLUP         CLOUDY    45  28  51 W9        29.91F
6HR MIN TEMP:  31; 6HR MAX TEMP:  46;

GRANTS         CLOUDY    49  27  43 NW16G25   29.90F
SILVER CITY      N/A     57  27  30 NW14G23   29.94F

$$
NMZ407-409-411-412-291900-
SOUTHERN DESERTS

CITY           SKY/WX    TMP DP  RH WIND       PRES   REMARKS
LORDSBURG      FAIR      63  30  29 W12G23    29.94S
DEMING         FAIR      65  24  21 W17G29    29.91F
6HR MIN TEMP:  43; 6HR MAX TEMP:  65;

LAS CRUCES     FAIR      64  21  19 W21G29    29.91S
HOLLOMAN AFB   FAIR      65  13  13 W13G18    29.86S
ALAMOGORDO     FAIR      64  12  13 W16       29.87F
T OR C         FAIR      63  20  19 W9        29.85F
6HR MIN TEMP:  48; 6HR MAX TEMP:  64;


$$
NMZ519>523-291900-
CENTRAL VALLEYS/CENTRAL HIGHLANDS

CITY           SKY/WX    TMP DP  RH WIND       PRES   REMARKS
ALBUQUERQUE    LGT RAIN  50  31  48 NW13G31   29.86S
6HR MIN TEMP:  42; 6HR MAX TEMP:  55; 6HR PCP: TRACE;

DOUBLE EAGLE   PTSUNNY   52  28  40 W16       29.86F
MORIARTY ARPT  PTSUNNY   52  23  33 W13G26    29.87S
6HR MIN TEMP:  33; 6HR MAX TEMP:  55;

CLINES CORNERS PTSUNNY   50  18  28 W21G28    29.83F
6HR MIN TEMP:  34; 6HR MAX TEMP:  50; 6HR PCP: TRACE;

BELEN          CLOUDY    56  26  32 W17G23    29.87S
6HR MIN TEMP:  40; 6HR MAX TEMP:  59;

SOCORRO        PTSUNNY   60  22  22 W17       29.86R
6HR MIN TEMP:  45; 6HR MAX TEMP:  64;


$$
NMZ524>526-539-540-291900-
SOUTHCENTRAL MOUNTAINS

CITY           SKY/WX    TMP DP  RH WIND       PRES   REMARKS
RUIDOSO          N/A     55  10  16 W18G28    29.88F

$$
NMZ527>531-291900-
NORTHEAST HIGHLANDS/NORTHEAST PLAINS

CITY           SKY/WX    TMP DP  RH WIND       PRES   REMARKS
LAS VEGAS      CLOUDY    40  31  70 SW6       29.84F
6HR MIN TEMP:  32; 6HR MAX TEMP:  42; 6HR PCP:  0.07;

RATON          CLOUDY    40  31  70 N3        29.85S
6HR MIN TEMP:  32; 6HR MAX TEMP:  40; 6HR PCP:  0.27;

CLAYTON        CLOUDY    43  39  86 N16       29.83F
6HR MIN TEMP:  40; 6HR MAX TEMP:  44; 6HR PCP:  0.22;


$$
NMZ532>537-291900-
EASTCENTRAL PLAINS

CITY           SKY/WX    TMP DP  RH WIND       PRES   REMARKS
TUCUMCARI      CLOUDY    51  46  83 NE7       29.81S
6HR MIN TEMP:  46; 6HR MAX TEMP:  51; 6HR PCP: TRACE;

CANNON AFB     PTSUNNY   60  46  59 VRB1      29.79F
6HR MIN TEMP:  48; 6HR MAX TEMP:  60;

CLOVIS AIRPORT FAIR      55  45  67 CALM      29.81S

$$
NMZ028-029-538-291900-
SOUTHEAST PLAINS

CITY           SKY/WX    TMP DP  RH WIND       PRES   REMARKS
ROSWELL        FAIR      73  11   9 W16G25    29.74F
6HR MIN TEMP:  55; 6HR MAX TEMP:  74;

ARTESIA        FAIR      73  12   9 W20G29    29.76F
CARLSBAD       FAIR      74  15  10 SW25G38   29.78F
6HR MIN TEMP:  61; 6HR MAX TEMP:  74;

HOBBS          SUNNY     73  16  11 SW29G38   29.78F


$$




USA.gov is the U.S. government's official web portal to all federal, state and local government web resources and services.